Flag for U.S.A. Weather past 2 weeks in Galveston, Texas, U.S.A.

Now
87 °F

Scattered clouds.


Feels Like: 100 °F
Forecast: 82 / 88 °F
Wind: 14 mph from Southeast

Location: Scholes Field

Current Time: Sep 1, 2014 at 6:35:06 PM

Latest Report: Sep 1, 2014 at 5:52 PM


Visibility: 10 mi

Pressure: 29.91 "Hg

Humidity: 75%

Dew point: 78 °F

Location of GalvestonLocation

Historic Weather in Galveston — Graph

°F

Galveston temperature yesterday

Maximum temperature yesterday: 88 °F (at 10:52 AM)
Minimum temperature yesterday: 80 °F (at 12:52 AM)
Average temperature yesterday: 82 °F

Past Weeks' High & Low Weather Summary

 TemperatureHumidityPressure
High96 °F (Aug 25, 2:52 PM)97% (Aug 19, 5:52 AM)30.11 "Hg (Aug 19, 5:52 AM)
Low75 °F (Aug 28, 9:00 AM)44% (Aug 25, 2:52 PM)29.84 "Hg (Aug 29, 4:52 PM)
Average85 °F77%29.96 "Hg
* Reported Aug 17 4:52 PM — Sep 1 4:52 PM, Galveston, Weather by CustomWeather, © 2014

Note: Actual official high and low records may vary slightly from our data, if they occured in-between our weather recording intervals... More about our weather records

Advertising

Galveston weather history for previous 24 hours

 ConditionsComfort  
Time TempWeatherWind HumidityBarometerVisibility
4:52 PM
Sep 1
88 °FScattered clouds.10 mph73%29.92 "Hg10 mi
3:52 PM89 °FScattered clouds.10 mph72%29.93 "Hg10 mi
2:52 PM89 °FScattered clouds.14 mph70%29.94 "Hg10 mi
1:52 PM89 °FScattered clouds.14 mph70%29.96 "Hg10 mi
12:52 PM88 °FPassing clouds.14 mph75%29.97 "Hg10 mi
11:52 AM89 °FScattered clouds.14 mph72%29.98 "Hg10 mi
10:52 AM88 °FScattered clouds.15 mph75%29.98 "Hg10 mi
9:52 AM86 °FPassing clouds.13 mph80%29.97 "Hg10 mi
8:52 AM85 °FPassing clouds.10 mph80%29.96 "Hg10 mi
7:52 AM84 °FPassing clouds.8 mph83%29.95 "Hg10 mi
6:52 AM82 °FClear.8 mph85%29.95 "Hg10 mi
5:52 AM82 °FPassing clouds.10 mph85%29.94 "Hg10 mi
4:52 AM83 °FPassing clouds.9 mph82%29.94 "Hg10 mi
3:52 AM83 °FClear.10 mph82%29.94 "Hg10 mi
2:52 AM83 °FPartly cloudy.12 mph85%29.95 "Hg10 mi
1:52 AM83 °FClear.14 mph82%29.96 "Hg10 mi
1:01 AM83 °FPassing clouds.17 mph82%29.96 "Hg10 mi
12:52 AM83 °FPassing clouds.17 mph85%29.96 "Hg10 mi
11:52 PM
Aug 31
83 °FOvercast.15 mph85%29.97 "Hg10 mi
10:52 PM83 °FPassing clouds.13 mph85%29.98 "Hg10 mi
9:52 PM82 °FPassing clouds.8 mph91%29.97 "Hg10 mi
8:52 PM81 °FPassing clouds.9 mph91%29.97 "Hg10 mi
7:52 PM81 °FSunny.8 mph85%29.96 "Hg10 mi
6:52 PM81 °FSunny.6 mph82%29.96 "Hg10 mi
Weather by CustomWeather, © 2014

See weather overviewHow to use our weather pages